Location: Beaurevoir
(49.9971°N, 3.3085°E)
Time: 03:57:23
(UTC+00:00)

Cosmos 1703 - Pass Details

Date: 23 May 2024
Orbit: 486 x 499 km, 82.5° (Epoch: 17 June)

Event Time Altitude Azimuth Distance (km) Brightness Sun altitude
Exits shadow 02:01:16 12° 167° (SSE) 1,571 5.2 -13.1°
Maximum altitude 02:04:31 47° 95° (E) 677 4.0 -12.8°
Drops below altitude 10° 02:08:08 10° 21° (NNE) 1,714 7.2 -12.4°
Sets 02:10:18 0° 15° (NNE) 2,600 8.3 -12.3°
